Tracking 28096 objects as of 28-Sep-2023
HD Live streaming from Space Station
objects crossing your sky now

COSMOS 839 DEB

Track COSMOS 839 DEB now!
10-day predictions


NORAD ID: 13946
Int'l Code: 1976-067BE
Perigee: 962.3 km
Apogee: 1,975.4 km
Inclination: 66.1 °
Period: 115.1 minutes
Semi major axis: 7839 km
RCS: 0.0127 m2 (small)
Launch date: July 8, 1976
Source: Commonwealth of Independent States (former USSR) (CIS)
Launch site: PLESETSK MISSILE AND SPACE COMPLEX (PKMTR)

Note: This is SATELLITE DEBRIS
Your satellite tracking list
Your tracking list is empty




NASA's NSSDC Master Catalog

Two Line Element Set (TLE):
1 13946U 76067BE  23271.48586115  .00000311  00000-0  11143-2 0  9999
2 13946  66.0665  23.7005 0646121 358.3587  80.6053 12.50661813848500
Source of the keplerian elements: AFSPC